Regional Weather Roundup
Issued by NWS

Home | Current Version | Previous Version | Text Only | Print | Product List | Glossary On
Versions: 1 2 3 4 5 6 7 8 9 10 11 12 13 14 15 16 17 18 19 20 21 22 23 24 25 26 27 28 29 30 31 32 33 34 35 36 37 38 39 40 41 42 43 44 45 46 47 48 49 50
658
ASUS44 KJAN 141010
RWRMS

MISSISSIPPI HOURLY WEATHER ROUNDUP
NATIONAL WEATHER SERVICE JACKSON MS
400 AM CST THU DEC 14 2017

NOTE: "FAIR: INDICATES FEW OR NO CLOUDS BELOW 12,000 FEET WITH NO
SIGNIFICANT WEATHER AND/OR OBSTRUCTIONS TO VISIBILITY.

MSZ001>002-007>008-010>013-018>021-025>028-034>036-141100-
NORTHWEST MISSISSIPPI

CITY           SKY/WX    TMP DP  RH WIND       PRES   REMARKS
BATESVILLE     FAIR      31  26  84 CALM      29.91S
CLARKSDALE     MOCLDY    36  30  80 CALM      29.91R
CLEVELAND      FAIR      36  31  80 CALM      29.90F
GREENWOOD      CLEAR     35  30  82 S3        29.91F
GREENVILLE     PTCLDY    40  30  67 W7        29.90F
OXFORD         FAIR      36  28  75 CALM      29.91R
TUNICA           N/A    N/A N/A N/A S6        29.91R
WINONA         FAIR      37  31  77 CALM      29.90F
$$

MSZ003>006-009-014>017-022>024-029>033-037>039-141100-
NORTHEAST MISSISSIPPI

CITY           SKY/WX    TMP DP  RH WIND       PRES   REMARKS
ABERDEEN       CLOUDY    30  30 100 CALM      29.91R
COLUMBUS AFB   CLEAR     31  29  91 CALM      29.89S
CORINTH        FAIR      36  27  69 N3        29.86S
GOLDN TRIANGLE CLEAR     43  29  57 W6          N/A
STARKVILLE     FAIR      37  30  75 CALM      29.91F
TUPELO         PTCLDY    40  27  59 SW6       29.88S
$$

MSZ040-058-141100-
CENTRAL MISSISSIPPI

CITY           SKY/WX    TMP DP  RH WIND       PRES   REMARKS
JACKSON INTL   MOCLDY    42  33  70 S3        29.92S
JACKSON HAWKNS MOCLDY    41  33  73 CALM      29.94S
MADISON        FAIR      37  32  81 CALM      29.93S
MERIDIAN KEY   PTCLDY    35  33  92 CALM      29.93F
MERIDIAN NAS   PTCLDY    42  32  67 W5        29.92F
RAYMOND          N/A     34  32  93 CALM      29.94S
VICKSBURG VKS  MOSUNNY   45  36  70 CALM      29.96S
$$

MSZ059>079-141100-
SOUTH MISSISSIPPI

CITY           SKY/WX    TMP DP  RH WIND       PRES   REMARKS
HATTIESBURG    PTCLDY    35  34  96 CALM      29.97S
LAUREL         FAIR      37  37 100 CALM      29.96S
MCCOMB         CLOUDY    36  33  89 CALM      29.96R
NATCHEZ        PTCLDY    42  37  82 CALM      29.96S
PINE BELT      PTCLDY    36  34  92 CALM      29.96S
$$

MSZ080>082-141100-
COASTAL MISSISSIPPI

CITY           SKY/WX    TMP DP  RH WIND       PRES   REMARKS
BILOXI         CLEAR     45  41  84 CALM      29.98R
PASCAGOULA     CLEAR     37  35  92 CALM      29.98F FOG
GULFPORT       CLEAR     41  39  93 CALM      29.98S
$$

LAZ007>009-015>016-023>026-141100-
NORTHEAST LOUISIANA

CITY           SKY/WX    TMP DP  RH WIND       PRES   REMARKS
BASTROP        FAIR      36  33  90 CALM      29.93F
TALLULAH/VBURG PTCLDY    34  32  92 CALM      29.95S
VIDALIA          N/A    N/A N/A N/A MISG      29.96R
$$




USA.gov is the U.S. government's official web portal to all federal, state and local government web resources and services.